Regional Weather Roundup
Issued by NWS

Home | Current Version | Previous Version | Text Only | Print | Product List | Glossary On
Versions: 1 2 3 4 5 6 7 8 9 10 11 12 13 14 15 16 17 18 19 20 21 22 23 24 25 26 27 28 29 30 31 32 33 34 35 36 37 38 39 40 41 42 43 44 45 46 47 48 49 50
000
ASUS44 KFWD 202101
RWRTX
NORTH TEXAS HOURLY WEATHER ROUNDUP
NATIONAL WEATHER SERVICE FORT WORTH TX
400 PM CDT WED AUG 20 2014

NOTE: "FAIR" INDICATES FEW OR NO CLOUDS BELOW 12,000 FEET WITH NO
SIGNIFICANT WEATHER AND/OR OBSTRUCTIONS TO VISIBILITY.

TXZ118-119-202200-
DALLAS/FORT WORTH METROPLEX

CITY           SKY/WX    TMP DP  RH WIND       PRES   REMARKS
DFW AIRPORT    MOSUNNY   96  67  38 S17       29.90F HX 100
DALLAS LOVE    NOT AVBL
FTW MEACHAM    SUNNY     97  66  36 S14G25    29.88F HX 100
DAL-EXECUTIVE  MOSUNNY   98  65  33 S13G23    29.90F HX 101
FTW-ALLIANCE   MOSUNNY   97  65  34 S12G26    29.89F HX  99
FTW-NAS-JRB    MOSUNNY  100  63  29 S17G24    29.93F HX 102
FTW-SPINKS     MOSUNNY   97  66  36 S13       29.92F HX 100
ARLINGTON      SUNNY     96  64  34 S13G23    29.90F HX  98
GRAND PRAIRIE  SUNNY     95  63  34 SE14      29.92F HX  96
ADDISON        MOSUNNY   95  64  36 S13G22    29.92F HX  97
MESQUITE       MOSUNNY   97  63  32 S12       29.92F HX  98
LANCASTER      MOSUNNY   98  64  32 S13       29.92F HX 100
$$

TXZ091>094-102>105-117-120-121-131>134-202200-
NORTH CENTRAL TEXAS

CITY           SKY/WX    TMP DP  RH WIND       PRES   REMARKS
SHRMAN/DENISON SUNNY     95  65  37 S14G20    29.93F HX  97
GAINESVILLE    SUNNY     92  69  46 SE15      29.93F HX  96
BOWIE          SUNNY     96  62  32 SE16G23   29.90F HX  97
BRIDGEPORT     SUNNY     98  57  25 S12G20    29.90F HX  96
DECATUR        SUNNY     93  62  35 SE16G22   29.91F HX  94
DENTON         SUNNY     95  65  37 S16G24    29.90F HX  97
MCKINNEY       SUNNY     95  67  39 S16G23    29.91F HX  99
GREENVILLE     MOSUNNY   97  64  34 S13       29.94F HX  99
ROCKWALL       MOSUNNY   95  70  43 S13G18    29.91F HX 101
TERRELL        MOSUNNY   97  68  38 SE12G24   29.93F HX 102
WAXAHACHIE     MOSUNNY   96  60  30 S13       29.92F HX  96
CLEBURNE       MOSUNNY   97  66  36 S10G17    29.92F HX 100
GRANBURY       SUNNY    100  59  25 S14G23    29.90F HAZE    HX 100
$$

TXZ083>090-098>101-113>116-127>130-139>142-154-155-202200-
WESTERN NORTH TEXAS

CITY           SKY/WX    TMP DP  RH WIND       PRES   REMARKS
WICHITA FALLS  MOSUNNY  101  56  22 S20G28    29.84F HX 100
WF-KICKAPOO    SUNNY    102  51  17 S14G22    29.87F HX  99
VERNON         MOSUNNY  101  58  24 S14G25    29.85F HX 100
ABILENE        SUNNY     96  64  34 S20G25    29.91F HX  98
ABILENE-DYESS  SUNNY     95  67  39 S20G25    29.89F HX  98
BRECKENRIDGE   SUNNY    100  53  20 S18G25    29.88F HAZE    HX  98
MINERAL WELLS  SUNNY     97  60  29 SE12G21   29.88F HX  97
STEPHENVILLE   SUNNY     95  60  30 S12G23    29.94F HX  95
COMANCHE       SUNNY     97  60  28 S10G18    29.92F HX  97
BROWNWOOD      SUNNY     97  57  26 S16       29.91F HX  95
COLEMAN        SUNNY     92  62  36 S17       29.93F HX  92
BRADY          SUNNY     93  59  31 SE14      29.93F HX  92
$$

TXZ143>147-156>162-174-175-202200-
CENTRAL TEXAS

CITY           SKY/WX    TMP DP  RH WIND       PRES   REMARKS
WACO           SUNNY     99  64  31 S16       29.90F HX 101
WACO-MCGREGOR  MOSUNNY  100  64  30 S15G22    29.90F HX 103
HILLSBORO      SUNNY     97  63  32 S16       29.91F HX  99
CORSICANA      SUNNY     95  67  39 S13       29.93F HX  99
MEXIA          SUNNY     96  70  42 SE15      29.92F HX 102
CAMERON        PTSUNNY   98  67  36 S7        29.89F HX 102
TEMPLE         MOSUNNY   99  64  32 S18       29.90F HX 101
KILLEEN        MOSUNNY   97  64  34 S15G22    29.91F HX  99
KILLEEN-SKYLRK MOSUNNY   99  64  32 S16       29.91F HX 101
FORT HOOD      SUNNY     99  61  28 S12G22    29.91F HX  99
HAMILTON       SUNNY     97  57  25 S15G28    29.94F HX  96
LAMPASAS       MOSUNNY   97  64  33 SE10G17   29.91F HX  98
$$

TXZ095>097-106>112-122>126-135>138-148>153-164>167-202200-
EAST TEXAS

CITY           SKY/WX    TMP DP  RH WIND       PRES   REMARKS
PARIS          SUNNY     93  70  46 S9G17     29.96F HX  99
SULPHUR SPRNGS SUNNY     95  66  37 S12G20    29.96F HX  98
CLARKSVILLE    SUNNY     95  64  35 S7        29.96F HX  97
MOUNT PLEASANT SUNNY     95  65  37 SE9       29.96F HX  97
MINEOLA        CLOUDY    93  70  46 SE8       29.96F HX  99
TYLER          SUNNY     95  70  44 S10       29.95F HX 101
LONGVIEW       MOSUNNY   94  70  45 S12       29.96F HX 100
MARSHALL       SUNNY     96  72  45 S8        29.99F HX 104
ATHENS         MOSUNNY   93  70  46 S9        29.94F HX  99
PALESTINE      MOSUNNY   95  71  45 S6        29.95F HX 103
JACKSONVILLE   MOSUNNY   92  72  50 SE6       29.99F HX 100
HENDERSON      MOSUNNY   94  70  45 SE8       29.97F HX 100
NACOGDOCHES    SUNNY     93  72  49 S7        29.96F HX 100
LUFKIN         TSTM      83  73  72 W12G24    29.98S
$$

SUPPLEMENTAL OBSERVATIONS (CENTRAL)

CITY           SKY/WX    TMP DP  RH WIND       PRES   REMARKS
$$

SUPPLEMENTAL OBSERVATIONS (WEST)

CITY           SKY/WX    TMP DP  RH WIND       PRES   REMARKS
$$

SUPPLEMENTAL OBSERVATIONS (EAST)

CITY           SKY/WX    TMP DP  RH WIND       PRES   REMARKS
$$

SUPPLEMENTAL OBSERVATIONS ARE A COLLECTION OF AUTOMATED INSTRUMENTS
THAT ARE MAINTAINED BY A VARIETY OF FEDERAL AND STATE AGENCIES.
CERTAIN ELEMENTS...SUCH AS HUMIDITY VALUES AND SUSTAINED WIND
SPEEDS...MAY BE APPROXIMATED.



USA.gov is the U.S. government's official web portal to all federal, state and local government web resources and services.